Nashua, NH

7:00 PM EDT on March 25, 2017 (GMT -0400)
Boire

Weather History for KASH - September, 2013

Change the Weather History Date:

Monday, September 30, 2013

  Actual Average Record
Temperature  
Mean Temperature 56 °F -  
Max Temperature 70 °F 67 °F 85 °F (1952)
Min Temperature 41 °F 41 °F 24 °F (1951)
Degree Days  
Heating Degree Days 10    
Growing Degree Days 6 (Base 50)    
Moisture  
Dew Point 45 °F    
Average Humidity 88    
Maximum Humidity 100    
Minimum Humidity 42    
Precipitation  
Precipitation 0.00 in - - ()
Sea Level Pressure  
Sea Level Pressure 30.50 in    
Wind  
Wind Speed 1 mph (NW)    
Max Wind Speed 7 mph    
Max Gust Speed -    
Visibility 5 miles    
Events Fog , Rain    
Averages and records for this station are not official NWS values.
T = Trace of Precipitation, MM = Missing Value Source: NWS Daily Summary

Daily Weather History Graph

Daily Weather History Graph

Search for Another Location

Airport or City:

Trip Planner

Search our weather history database for the weather conditions in past years. The results will help you decide how hot, cold, wet, or windy it might be!

Date:

Astronomy

Sep. 30, 2013 Rise Set
Actual Time 6:42 AM EDT 6:28 PM EDT
Civil Twilight 6:14 AM EDT 6:56 PM EDT
Nautical Twilight 5:41 AM EDT 7:29 PM EDT
Astronomical Twilight 5:08 AM EDT 8:02 PM EDT
Moon 2:11 AM EDT (9/30) 4:02 PM EDT (9/30)
Length of Visible Light 12h 42m
Length of Day
11h 46m
Waning Crescent, 19% of the Moon is Illuminated
Sep 30
Waning Crescent
Oct 4
New
Oct 11
First Quarter
Oct 18
Full
Oct 26
Last Quarter

Hourly Weather History & Observations

Time (EDT) Temp. Windchill Dew Point Humidity Pressure Visibility Wind Dir Wind Speed Gust Speed Precip Events Conditions
12:51 AM 45.0 °F - 41.9 °F 89% 30.88 in 10.0 mi Calm Calm - N/A   Clear
1:51 AM 43.0 °F - 41.9 °F 96% 30.88 in 10.0 mi Calm Calm - N/A   Clear
2:51 AM 43.9 °F 42.3 °F 43.0 °F 97% 30.86 in 0.8 mi NW 3.5 mph - N/A   Mist
3:04 AM 44.6 °F 42.2 °F 42.8 °F 93% 30.11 in 1.2 mi NW 4.6 mph - N/A   Mostly Cloudy
3:14 AM 44.6 °F 43.1 °F 42.8 °F 93% 30.11 in 0.8 mi WNW 3.5 mph - N/A   Overcast
3:31 AM 44.6 °F 42.2 °F 44.6 °F 100% 30.12 in 1.0 mi NW 4.6 mph - N/A   Mostly Cloudy
3:40 AM 44.6 °F - 42.8 °F 93% 30.11 in 0.5 mi Calm Calm - N/A Fog Fog
3:51 AM 43.9 °F - 43.9 °F 100% 30.85 in 0.2 mi Calm Calm - N/A Fog Fog
4:09 AM 44.6 °F - 44.6 °F 100% 30.12 in 0.5 mi Calm Calm - N/A Fog Fog
4:31 AM 44.6 °F - 44.6 °F 100% 30.12 in 0.2 mi Calm Calm - N/A Fog Fog
4:43 AM 44.6 °F - 44.6 °F 100% 30.12 in 0.5 mi Calm Calm - N/A Fog Fog
4:51 AM 45.0 °F - 45.0 °F 100% 30.86 in 0.8 mi Calm Calm - N/A   Overcast
4:59 AM 44.6 °F - 44.6 °F 100% 30.12 in 1.2 mi Calm Calm - N/A   Overcast
5:03 AM 44.6 °F - 44.6 °F 100% 30.11 in 2.0 mi Calm Calm - N/A   Overcast
5:16 AM 44.6 °F - 44.6 °F 100% 30.11 in 1.2 mi Calm Calm - N/A   Overcast
5:18 AM 44.6 °F 42.2 °F 44.6 °F 100% 30.11 in 0.8 mi NW 4.6 mph - N/A   Overcast
5:23 AM 44.6 °F 43.1 °F 44.6 °F 100% 30.11 in 0.2 mi WNW 3.5 mph - N/A Fog Fog
5:33 AM 44.6 °F - 44.6 °F 100% 30.12 in 0.2 mi Calm Calm - N/A Fog Fog
5:51 AM 43.0 °F - 43.0 °F 100% 30.86 in 0.2 mi Calm Calm - N/A Fog Fog
6:02 AM 42.8 °F - 42.8 °F 100% 30.12 in 0.5 mi Calm Calm - N/A Fog Fog
6:20 AM 44.6 °F - 44.6 °F 100% 30.12 in 0.2 mi Calm Calm - N/A Fog Fog
6:51 AM 43.0 °F - 43.0 °F 100% 30.86 in 0.2 mi Calm Calm - N/A Fog Fog
7:35 AM 42.8 °F - 42.8 °F 100% 30.12 in 0.2 mi Calm Calm - N/A Fog Fog
7:42 AM 42.8 °F - 42.8 °F 100% 30.11 in 0.8 mi Calm Calm - N/A   Mostly Cloudy
7:44 AM 42.8 °F - 42.8 °F 100% 30.11 in 1.5 mi Calm Calm - N/A   Mostly Cloudy
7:51 AM 41.9 °F - 41.9 °F 100% 30.86 in 10.0 mi Calm Calm - N/A   Scattered Clouds
8:51 AM 45.9 °F - 45.9 °F 100% 30.87 in 10.0 mi Calm Calm - N/A   Clear
9:51 AM 50.0 °F - 46.9 °F 89% 30.84 in 10.0 mi Calm Calm - N/A   Clear
10:51 AM 56.8 °F - 47.8 °F 72% 30.83 in 10.0 mi Variable 3.5 mph - N/A   Clear
11:51 AM 61.9 °F - 47.8 °F 60% 30.80 in 10.0 mi Variable 3.5 mph - N/A   Clear
12:51 PM 64.9 °F - 45.9 °F 50% 30.79 in 10.0 mi Calm Calm - 0.00 in Rain Light Rain
1:51 PM 68.0 °F - 48.9 °F 50% 30.76 in 10.0 mi NE 5.8 mph - 0.00 in   Partly Cloudy
2:51 PM 70.0 °F - 46.9 °F 44% 30.75 in 10.0 mi Variable 6.9 mph - N/A   Clear
3:51 PM 70.0 °F - 46.9 °F 44% 30.73 in 10.0 mi Calm Calm - N/A   Clear
4:51 PM 70.0 °F - 45.9 °F 42% 30.72 in 10.0 mi Variable 3.5 mph - N/A   Clear
5:51 PM 65.8 °F - 50.0 °F 57% 30.72 in 10.0 mi Calm Calm - N/A   Clear
6:51 PM 59.9 °F - 50.9 °F 72% 30.74 in 10.0 mi Variable 4.6 mph - N/A   Clear
7:51 PM 55.9 °F - 50.9 °F 83% 30.74 in 10.0 mi Calm Calm - N/A   Clear
8:51 PM 52.9 °F - 50.0 °F 90% 30.74 in 10.0 mi Calm Calm - N/A   Clear
9:51 PM 52.0 °F - 50.0 °F 93% 30.74 in 10.0 mi NW 4.6 mph - N/A   Clear
10:51 PM 52.0 °F - 50.0 °F 93% 30.73 in 10.0 mi Calm Calm - N/A   Clear
11:51 PM 48.9 °F - 47.8 °F 96% 30.72 in 10.0 mi NW 3.5 mph - N/A   Clear